Regional Weather Roundup
Issued by NWS

Home | Current Version | Previous Version | Graphics & Text | Print | Product List | Glossary On
Versions: 1 2 3 4 5 6 7 8 9 10 11 12 13 14 15 16 17 18 19 20 21 22 23 24 25 26 27 28 29 30 31 32 33 34 35 36 37 38 39 40 41 42 43 44 45 46 47 48 49 50
000
ASUS43 KIND 311609
RWRIN

WEATHER ROUNDUP FOR INDIANA
NATIONAL WEATHER SERVICE INDIANAPOLIS IN
1200 PM EDT MON AUG 31 2015

NOTE: "FAIR" INDICATES FEW OR NO CLOUDS BELOW 12,000 FEET WITH NO
SIGNIFICANT WEATHER AND/OR OBSTRUCTIONS TO VISIBILITY.

* - STATION DOES NOT REPORT WEATHER SUCH AS PRECIPITATION OR FOG.

+ - STATION NOT QUALITY CONTROLLED BY THE NATIONAL WEATHER SERVICE.
    USE DATA WITH CAUTION...ESPECIALLY DEWPOINT AND RELATIVE
    HUMIDITY OBSERVATIONS.

INZ001>003-010>013-019-020-311700-
NORTHWEST INDIANA

CITY           SKY/WX    TMP DP  RH WIND       PRES   REMARKS
GARY /AIRPORT/ MOSUNNY   79  68  69 CALM      30.10S
KNOX *+        SUNNY     73  73 100 CALM      30.10S
LA PORTE +     PTSUNNY  N/A N/A N/A CALM      30.12S FOG
MICHIGAN CITY+ MOSUNNY   77  72  83 S3        30.10F
MONTICELLO +   SUNNY     80  74  82 SW5       30.10S
RENSSELAER +   SUNNY     81  73  78 SW3       30.11S
VALPARAISO     MOSUNNY   75  70  84 CALM      30.11S

$$

LMZ046-743>745-311700-
SOUTHERN LAKE MICHIGAN

STATION/POSITION TIME  TEMP    WIND        PRES    WAVE
                       AIR SEA DIR/SP/G            HT
                 (UTC) (F)     (DEG/KT/KT) (MB)    (FT)
BURNS HARBOR     1500   72     290/  3/  5 1019.6R

$$

INZ004-005-014>016-021>024-311700-
NORTH CENTRAL INDIANA

CITY           SKY/WX    TMP DP  RH WIND       PRES   REMARKS
ELKHART        SUNNY     75  72  88 CALM      30.12S FOG
GOSHEN         LGT RAIN  79  71  76 S6        30.11S
LOGANSPORT +   MOSUNNY   81  64  57 W3        30.12S
ROCHESTER +    SUNNY     82  72  69 W6        30.11F
SOUTH BEND     MOSUNNY   76  69  79 SW6       30.11S
WARSAW +       SUNNY     79  70  73 SW3       30.11F

$$

INZ006>009-017-018-025>027-311700-
NORTHEAST INDIANA

CITY           SKY/WX    TMP DP  RH WIND       PRES   REMARKS
ANGOLA *+      MOSUNNY   82  72  69 CALM      30.11S
AUBURN +       SUNNY     79  68  69 CALM      30.13S
FORT WAYNE     MOSUNNY   81  71  71 SW6       30.12S
HUNTINGTON +   PTSUNNY   80  66  63 W6        30.12S

$$

INZ028-029-035-036-043>045-051>053-311700-
WEST CENTRAL INDIANA

CITY           SKY/WX    TMP DP  RH WIND       PRES   REMARKS
CRAWFORDSVL +  MOSUNNY   78  66  66 CALM      30.13S
GREENCASTLE +  SUNNY     79  64  61 CALM      30.14S
LAFAYETTE      PTSUNNY   82  69  64 SW6       30.10S
TERRE HAUTE    MOSUNNY   80  69  69 VRB5      30.13S

$$

INZ030>032-037>040-046>048-054>057-064-065-311700-
CENTRAL INDIANA

CITY           SKY/WX    TMP DP  RH WIND       PRES   REMARKS
ANDERSON       MOSUNNY   81  64  57 CALM      30.15S
COLUMBUS       SUNNY     79  66  65 S9        30.14
FRANKFORT +    MOSUNNY   80  72  75 S5        30.14S
GREENWOOD *+   SUNNY     81  66  61 SW5       30.15S
INDIANAPOLIS   NOT AVBL
-EAGLE CREEK   SUNNY     81  68  64 VRB3      30.12S
KOKOMO *+      PTSUNNY   81  70  69 W6        30.12S
MARION +       MOSUNNY   80  62  53 W6        30.13S
MT COMFORT *+  MOSUNNY   82  66  57 S5        30.14S
SHELBYVILLE    SUNNY     83  69  62 SW7       30.13S
ZIONSVILLE +   MOSUNNY   82  69  64 SW3       30.14S

$$

INZ033-034-041-042-049-050-058-059-311700-
EAST CENTRAL INDIANA

CITY           SKY/WX    TMP DP  RH WIND       PRES   REMARKS
MUNCIE         MOSUNNY   78  69  73 VRB7      30.13S

$$

INZ060-061-067>069-081>083-085>088-311700-
SOUTHWEST INDIANA

CITY           SKY/WX    TMP DP  RH WIND       PRES   REMARKS
EVANSVILLE     SUNNY     80  68  66 SW6       30.14S
HUNTINGBURG *+ PTSUNNY   81  70  69 SW7       30.14F
WASHINGTON +   SUNNY     81  65  59 SW6       30.14S

$$

INZ062-063-066-070>080-084-089>092-311700-
SOUTH CENTRAL AND SOUTHEAST INDIANA

CITY           SKY/WX    TMP DP  RH WIND       PRES   REMARKS
BLOOMINGTON    SUNNY     80  68  66 SW8       30.15S
MADISON *+     SUNNY     81  64  57 W6        30.17F
NORTH VERNON + SUNNY     81  68  65 CALM      30.16S
SEYMOUR +      SUNNY     84  66  54 SW7       30.14S

$$



USA.gov is the U.S. government's official web portal to all federal, state and local government web resources and services.